FENGYUN 1C DEB, 31098

Orbit data source: Space-Track

FENGYUN 1C DEB, 31098 is space debris in SSO originally from a launch on Mon, 10 May 1999 UTC launched from the Taiyaun Space Center, China (TSC). Fengyun 1C debris stems from the Chinese weather satellite Fengyun-1C, which was intentionally destroyed by a Chinese anti-satellite missile in 2007. This event dramatically increased the amount of space debris, with thousands of trackable fragments posing hazards to satellites and human spaceflight. The Fengyun 1C debris cloud has become a focal point in discussions about space sustainability and the need for international regulations to prevent the creation of new debris.

Loading next visibility...
Identifier
31098, 1999-025BGU
Orbit
SSO
Country
Flag of CNCN / PRC
Related business
Manufacturer
Unknown
Mission
Spacecraft
Bus & Motor
Unknown
Mass
Unknown
Launch date (UTC)
1999-05-10 (27 years ago)
Launch vehicle
Unknown
Launch site
Taiyaun Space Center, China (TSC)
Object type
Payload
Rocket body
Debris
Shape & HBR
Unknown shape, 0.1 m
Radar Cross Section
Small (<0.1 m²)

Expand to show TLE details & history
Last TLE update: 22 hours ago

TLE from 22 hours ago
0 FENGYUN 1C DEB
1 31098U 99025BGU 26070.99844395  .00011662  00000-0  27567-2 0  9997
2 31098  98.8683 199.0541 0010257 338.5298  21.5465 14.54262048982533
Epoch: 2026-03-11T23:57Z
TLE epoch observation values (Epoch: 2026-03-11T23:57:45.557Z)
Latitude
-0.00004°
Longitude
29.95965°
Altitude
707.954 km
Speed
7.505 km/s
True Right ascension
13h 16m 12s
True Declination
0° 00' 00"
Sunlit
Object was in full shadow at epoch
Visualization orbit readout
Latitude
Unknown
Longitude
Unknown
Altitude
Unknown
Speed
Unknown
Apparent Right ascension
Unknown
Apparent Declination
Unknown
Sunlit
N/A
Visualization observer readout
Local Sidereal Time
02:18:02
Azimuth
Unknown
Elevation
Unknown
Doppler factor
Unknown
Orbital elements
Apogee altitude
716.152 km
Perigee altitude
701.614 km
Semi-major axis
7,087.02 km
Eccentricity
0.00103
Inclination
98.8683°
RAAN
199.0541°
Arg. of periapsis
338.5298°
True anomaly
21.58972°
Mean anomaly
21.5465°
Eccentric anomaly
21.5681°
Mean motion
3.63787 °/min
Orbital period
98.96 mins
BSTAR
0.0027567
Loading maneuver chart data...
Computing Atmospheric mass density...

Documentation

Showing up to 5 results
|